Location: Passo di Treia
(43.2833°N, 13.3333°E)
Time: 22:24:58
(UTC+00:00)

COSMO-SKYMED 1 - Pass Details

Date: 09 December 2019
Orbit: 621 x 623 km, 97.9° (Epoch: 17 January)

Event Time Altitude Azimuth Distance (km) Brightness Sun altitude
Exits shadow 17:11:42 16° 17° (NNE) 1,651 4.4 -17.7°
Maximum altitude 17:15:11 76° 102° (ESE) 647 2.4 -18.3°
Drops below altitude 10° 17:19:30 10° 189° (S) 1,985 5.4 -19.0°
Sets 17:21:41 0° 190° (S) 2,886 6.3 -19.4°
